Wind_Speed
34 32 31 31 31 30 29 27 27 25 22 21 19 17 17 16 16 16 15 15 14 13 13 13 12 12 12 13 13 12 12 14 14 14 14 14 14 13 12 11 11 11 10 10
35 34 33 32 31 31 31 29 29 27 24 22 21 21 19 18 18 17 16 16 15 14 13 14 12 13 13 13 13 13 14 14 15 15 15 15 15 14 13 12 11 11 11 12
36 35 34 34 30 30 31 31 30 30 28 25 23 22 21 20 19 18 18 17 17 16 15 14 14 14 14 14 14 14 15 15 16 15 16 15 16 16 14 13 12 12 12 12
38 37 37 33 32 32 32 31 31 30 29 28 27 25 24 23 22 22 20 20 19 18 18 16 15 15 15 15 15 15 15 16 16 17 17 16 16 15 14 13 13 13 13 13
39 40 38 35 33 34 34 33 32 31 29 29 29 28 27 26 25 25 24 23 22 21 20 18 16 16 16 16 15 15 16 17 17 17 17 17 16 15 14 13 14 15 15 15
41 41 41 37 35 34 36 36 34 33 32 31 30 29 28 28 28 28 27 26 24 23 22 21 18 18 18 18 17 17 17 17 17 18 18 17 16 15 15 15 15 15 16 16
41 42 42 38 36 35 36 36 34 33 33 33 32 31 30 29 29 29 27 26 25 25 24 23 21 21 19 19 19 19 19 18 17 18 17 17 17 16 16 16 16 16 16 16
40 42 42 38 36 36 35 34 33 33 33 34 34 33 32 31 30 29 28 26 25 25 25 24 23 20 19 20 20 20 20 19 18 18 18 18 17 17 17 16 17 17 17 17
39 39 39 38 37 35 35 35 34 34 34 33 34 35 35 34 31 30 30 28 27 26 26 25 23 21 21 21 21 21 21 20 19 19 19 18 18 18 18 18 18 18 18 18
38 38 37 37 37 36 35 36 35 34 33 34 34 34 35 35 33 32 31 30 30 29 28 25 23 23 22 22 22 21 21 21 20 20 19 19 19 19 20 20 19 20 20 20
38 37 37 36 36 36 36 35 35 34 34 35 35 34 35 35 34 33 32 31 30 29 27 26 25 24 24 23 23 22 22 22 21 21 21 21 21 21 22 21 21 21 21 22
37 37 37 36 36 36 36 36 35 36 36 35 35 34 34 33 32 32 33 32 30 29 28 27 26 25 24 24 24 24 24 23 23 22 23 23 23 22 22 23 23 22 23 23
37 36 36 37 36 36 37 37 35 34 34 35 35 34 34 33 33 32 32 32 30 28 28 27 26 25 25 25 25 25 24 25 24 25 25 25 24 24 24 25 24 25 25 24
34 34 35 34 36 37 38 38 37 36 34 33 34 33 32 33 33 33 33 31 29 29 28 28 28 27 27 27 27 26 26 26 26 26 27 26 25 25 26 26 26 26 26 26
32 33 33 33 34 36 38 37 36 37 36 35 34 34 32 32 32 32 31 31 29 29 30 30 29 29 30 29 29 29 28 28 27 27 27 27 26 26 27 27 27 27 27 27
32 33 34 34 35 36 38 38 37 36 36 36 36 35 34 33 33 32 31 30 31 30 31 31 31 31 31 31 31 30 30 29 28 27 28 28 28 28 28 28 28 28 27 27
31 32 33 34 34 35 37 36 37 37 37 37 36 35 34 33 32 32 32 32 33 32 32 32 32 32 32 32 32 31 31 30 30 29 29 29 30 29 29 28 28 28 28 28
32 31 31 32 33 34 35 35 35 36 37 38 37 37 36 35 34 34 34 34 34 34 33 33 33 32 32 32 32 33 32 32 31 31 31 30 31 30 30 30 30 30 30 29
30 29 29 29 31 33 34 34 34 35 35 36 36 37 37 36 36 35 34 35 35 34 35 35 35 34 33 33 34 34 33 33 33 32 32 32 32 31 31 30 31 31 30 30
30 29 29 30 32 33 33 34 34 34 34 35 35 35 36 36 35 35 35 34 35 35 36 36 36 36 35 34 34 34 34 33 33 33 32 32 32 33 32 31 31 30 30 30
27 28 28 30 31 33 34 34 34 34 33 34 34 34 35 36 36 35 34 35 35 36 37 37 36 36 36 36 36 35 35 34 34 33 33 33 33 33 32 32 31 30 31 31
27 27 28 28 29 30 31 34 33 33 34 34 34 34 35 35 36 35 33 33 35 35 36 35 35 36 36 37 37 36 35 35 34 33 33 33 32 32 32 31 31 31 31 30
25 25 25 26 27 28 29 30 31 32 32 33 33 33 34 33 33 34 34 34 33 33 34 34 35 35 35 35 34 34 34 33 33 32 32 32 31 31 32 32 31 30 30 30
22 22 22 23 25 27 28 28 30 30 31 31 32 33 33 33 33 33 34 35 35 34 33 33 33 33 32 33 33 33 32 32 32 32 31 31 31 31 31 31 31 30 30 31
19 20 20 21 23 25 26 27 28 29 29 30 31 32 32 33 33 32 32 33 34 32 32 33 32 32 31 31 31 31 31 31 31 31 30 30 30 30 30 30 30 30 31 31
18 18 19 20 20 22 23 26 27 28 29 29 29 30 30 31 31 31 31 31 32 33 33 32 32 31 31 31 31 31 30 30 29 29 29 29 30 30 30 31 31 31 31 31
17 17 18 18 19 19 20 22 23 24 26 27 27 28 28 28 28 29 30 30 30 31 31 31 31 30 30 30 30 29 29 29 29 29 29 29 29 30 30 31 30 30 30 29
Wind_Direction
223 222 224 227 226 226 228 231 237 239 242 246 252 260 265 272 277 283 288 294 298 300 304 305 305 306 308 316 323 327 327 331 332 333 334 336 339 338 336 330 326 328 330 329
225 224 225 226 227 227 229 232 236 239 239 241 248 254 260 266 271 277 283 286 292 293 295 299 298 299 301 309 317 320 321 323 326 327 329 328 329 329 327 328 329 327 328 324
224 225 226 225 226 227 229 233 237 239 240 238 243 250 257 264 266 275 279 282 289 288 289 292 295 296 294 300 307 313 317 320 323 326 327 326 327 326 327 323 323 324 325 323
225 224 225 226 225 227 229 232 236 240 240 238 241 247 254 259 263 269 275 280 285 285 285 285 286 288 289 293 300 306 312 316 319 323 325 323 322 322 322 322 322 324 325 322
225 226 227 225 225 228 230 231 234 238 238 237 240 245 249 255 261 266 272 277 281 282 284 280 279 282 283 287 292 299 306 310 312 316 319 321 319 317 316 317 318 318 321 321
227 228 229 228 226 229 231 234 235 237 237 238 240 244 249 254 258 262 268 273 276 277 279 279 275 277 280 284 288 295 301 306 308 312 314 315 314 314 313 313 314 314 317 319
228 230 231 231 229 229 232 234 235 237 237 237 239 244 249 252 256 261 263 269 274 276 277 277 275 274 276 281 284 290 296 300 304 307 310 311 311 311 310 309 313 313 314 316
230 231 233 231 230 230 233 235 236 237 239 240 241 244 248 250 253 258 263 269 274 274 273 275 277 274 273 275 279 285 289 292 296 301 305 306 306 307 310 312 312 313 312 313
232 234 234 232 231 232 232 233 235 236 238 240 241 244 248 252 254 258 262 266 269 271 271 273 273 273 271 273 277 282 286 288 291 298 302 304 305 306 308 310 311 311 312 311
232 233 233 233 231 232 232 232 234 236 238 241 242 244 248 252 256 258 260 265 268 269 270 270 271 271 272 274 275 279 284 286 291 295 298 299 301 304 305 307 308 309 309 310
234 233 233 233 231 231 232 233 233 235 239 240 241 244 248 251 254 257 258 261 263 263 265 267 270 270 271 274 275 278 283 286 288 291 294 296 298 301 302 303 304 305 306 307
234 234 235 234 231 230 232 235 235 236 238 238 239 241 245 249 252 254 257 261 262 262 262 263 264 266 268 272 274 279 281 283 286 289 291 293 295 296 298 299 300 301 302 304
236 236 234 232 230 230 233 235 237 239 241 241 242 244 245 249 251 254 257 258 259 260 260 260 262 265 268 272 277 280 281 283 285 287 289 291 293 294 296 298 299 300 303 303
233 234 233 231 230 230 233 236 238 240 243 244 245 245 246 247 249 251 253 254 255 258 259 260 261 264 268 270 274 276 278 280 282 286 288 290 291 292 295 296 297 299 300 300
235 234 234 231 232 233 233 235 237 239 242 244 246 246 246 246 247 250 252 254 255 256 258 259 262 265 267 268 270 273 275 277 280 282 286 289 290 291 294 295 296 297 298 298
239 238 236 236 235 235 236 239 240 241 243 245 247 249 250 250 250 252 253 255 255 256 258 259 261 264 266 266 268 271 273 275 277 279 283 287 289 290 292 293 294 295 296 296
238 240 241 242 241 238 238 240 241 242 244 247 248 250 253 254 254 254 253 254 256 257 258 259 260 263 265 266 267 270 272 273 275 277 281 284 286 288 290 291 293 293 294 295
239 241 242 243 240 240 241 242 244 245 247 248 250 251 253 255 256 256 255 256 257 257 259 260 260 262 264 266 268 271 272 273 274 276 278 281 283 286 287 288 290 291 291 293
241 240 241 243 242 242 243 245 246 246 248 249 251 253 253 253 255 256 256 257 257 257 258 259 261 263 264 266 268 270 271 272 275 277 278 279 281 284 285 286 287 289 290 291
241 241 242 244 244 243 244 246 246 247 249 251 252 253 253 253 255 257 257 257 257 258 259 260 261 263 263 265 267 269 271 274 275 276 278 279 280 281 282 283 285 286 288 291
240 242 244 245 244 244 245 245 248 249 250 252 253 254 253 253 254 256 256 257 258 259 261 261 260 261 263 265 267 267 270 274 277 278 278 278 280 279 280 282 283 284 286 287
243 244 246 248 247 245 246 246 248 249 250 252 254 255 255 255 255 257 259 258 259 261 261 261 262 263 264 266 268 269 271 273 275 276 277 277 278 279 279 280 282 283 284 285
244 244 246 247 247 248 248 247 247 249 251 252 254 255 256 257 258 259 260 261 262 263 262 262 263 263 264 265 267 270 271 272 273 275 276 276 277 279 280 281 282 282 283 284
243 244 246 248 249 249 250 252 251 251 251 251 253 256 256 257 259 260 261 262 263 264 264 264 263 263 265 266 268 268 269 270 272 275 277 278 278 279 280 281 282 282 283 285
246 249 250 251 253 253 252 251 252 251 252 255 256 256 257 258 259 260 261 260 260 262 263 263 265 266 267 268 269 269 270 271 272 274 276 277 277 277 278 280 282 284 284 285
249 253 255 255 257 258 256 254 253 254 255 255 255 256 257 258 259 260 261 261 260 261 261 262 265 266 267 268 269 271 271 271 271 272 274 276 277 277 278 280 282 283 283 284
249 253 255 256 259 260 259 258 255 254 255 256 256 257 257 258 259 259 260 261 262 262 262 262 264 265 266 267 268 269 269 270 271 271 273 275 276 277 279 280 281 282 282 284
Height
5881 5885 5888 5892 5895 5898 5900 5902 5905 5907 5909 5911 5912 5913 5914 5915 5916 5917 5918 5918 5918 5918 5917 5916 5915 5914 5912 5911 5909 5907 5905 5902 5900 5898 5895 5893 5890 5888 5886 5884 5882 5880 5878 5876
5874 5878 5881 5885 5888 5892 5894 5896 5899 5901 5904 5906 5908 5909 5910 5911 5912 5913 5914 5914 5914 5914 5914 5913 5912 5911 5909 5908 5906 5904 5902 5900 5897 5895 5893 5890 5888 5885 5883 5881 5879 5878 5876 5874
5867 5871 5874 5878 5883 5885 5888 5890 5893 5895 5899 5901 5902 5904 5906 5907 5908 5909 5910 5910 5911 5910 5910 5909 5908 5908 5906 5905 5903 5901 5900 5897 5895 5892 5890 5887 5885 5882 5880 5878 5876 5875 5873 5871
5859 5864 5867 5874 5877 5878 5881 5884 5887 5889 5892 5895 5897 5899 5901 5903 5904 5905 5906 5906 5906 5906 5905 5905 5905 5904 5903 5901 5900 5898 5896 5895 5892 5889 5887 5884 5882 5880 5878 5876 5874 5872 5870 5868
5851 5855 5859 5866 5869 5872 5875 5877 5881 5883 5885 5888 5891 5893 5895 5897 5899 5900 5900 5901 5901 5901 5900 5900 5900 5899 5898 5897 5895 5894 5893 5891 5889 5886 5884 5881 5879 5877 5875 5873 5871 5869 5867 5864
5843 5847 5851 5858 5862 5865 5868 5870 5874 5876 5879 5882 5884 5886 5889 5891 5893 5894 5895 5895 5896 5895 5895 5893 5893 5893 5893 5892 5891 5890 5888 5887 5885 5883 5880 5878 5875 5873 5871 5869 5867 5865 5863 5861
5834 5838 5843 5849 5854 5858 5861 5863 5867 5870 5872 5875 5878 5881 5884 5885 5886 5887 5888 5889 5890 5889 5889 5887 5887 5886 5887 5887 5886 5885 5883 5882 5880 5878 5876 5874 5871 5870 5868 5866 5864 5861 5859 5857
5826 5830 5836 5841 5845 5849 5853 5856 5859 5863 5866 5868 5871 5874 5876 5877 5879 5881 5882 5883 5883 5883 5883 5881 5880 5879 5881 5881 5880 5879 5878 5877 5875 5874 5872 5870 5867 5866 5864 5862 5860 5858 5856 5853
5819 5824 5828 5833 5837 5841 5845 5849 5852 5855 5858 5860 5863 5866 5868 5870 5872 5874 5875 5876 5876 5876 5876 5875 5875 5875 5875 5875 5874 5873 5872 5871 5870 5869 5867 5865 5863 5861 5859 5857 5856 5853 5851 5849
5811 5815 5819 5825 5829 5834 5837 5841 5845 5848 5851 5853 5856 5858 5860 5862 5864 5866 5867 5868 5869 5869 5869 5868 5868 5869 5869 5868 5868 5867 5866 5865 5864 5863 5862 5860 5858 5857 5855 5853 5851 5848 5846 5844
5802 5807 5811 5816 5821 5825 5829 5832 5837 5840 5843 5845 5848 5850 5853 5855 5856 5858 5859 5860 5860 5861 5862 5862 5862 5862 5862 5862 5861 5861 5860 5859 5858 5857 5856 5855 5853 5851 5849 5847 5845 5843 5841 5838
5794 5799 5803 5808 5812 5816 5820 5824 5827 5831 5833 5835 5838 5841 5844 5847 5848 5849 5850 5852 5853 5853 5854 5854 5855 5855 5855 5855 5855 5855 5854 5853 5852 5851 5850 5849 5847 5846 5844 5842 5840 5837 5835 5833
5786 5791 5794 5798 5802 5807 5811 5815 5818 5821 5824 5827 5830 5833 5835 5837 5839 5840 5842 5842 5844 5845 5846 5847 5848 5848 5848 5848 5848 5848 5847 5846 5846 5845 5844 5842 5841 5839 5837 5835 5833 5831 5828 5826
5777 5781 5786 5790 5794 5798 5802 5805 5808 5813 5816 5819 5821 5824 5826 5828 5829 5831 5833 5834 5835 5837 5838 5839 5840 5841 5841 5841 5841 5840 5840 5839 5839 5838 5837 5835 5834 5832 5830 5828 5826 5824 5821 5819
5769 5773 5777 5781 5784 5788 5792 5796 5800 5804 5807 5810 5812 5814 5816 5818 5820 5822 5824 5826 5827 5829 5830 5830 5832 5832 5833 5833 5833 5833 5832 5832 5831 5830 5829 5828 5826 5824 5822 5821 5819 5816 5814 5811
5762 5765 5768 5772 5775 5779 5783 5787 5791 5795 5798 5800 5803 5805 5807 5809 5811 5813 5815 5817 5819 5820 5822 5822 5823 5824 5824 5824 5824 5824 5824 5824 5823 5822 5821 5820 5818 5817 5815 5813 5811 5808 5806 5804
5755 5757 5759 5762 5765 5768 5773 5777 5781 5785 5789 5791 5793 5796 5798 5800 5802 5804 5806 5808 5810 5811 5812 5814 5814 5814 5814 5815 5815 5815 5815 5815 5814 5814 5813 5812 5810 5809 5807 5805 5803 5800 5798 5796
5746 5749 5751 5753 5757 5760 5764 5768 5772 5775 5778 5781 5783 5786 5788 5791 5793 5795 5797 5798 5800 5802 5803 5804 5804 5804 5804 5805 5806 5806 5806 5805 5805 5805 5804 5803 5801 5800 5798 5796 5794 5792 5790 5788
5737 5740 5742 5745 5748 5752 5755 5759 5762 5765 5768 5771 5773 5776 5778 5780 5783 5784 5787 5788 5790 5791 5793 5793 5793 5794 5794 5795 5796 5796 5796 5795 5795 5795 5794 5793 5792 5790 5789 5787 5785 5783 5781 5779
5729 5732 5735 5737 5740 5743 5746 5749 5752 5756 5759 5761 5763 5766 5768 5770 5772 5774 5775 5777 5779 5780 5782 5782 5783 5784 5785 5785 5786 5786 5785 5785 5785 5785 5784 5783 5782 5780 5779 5777 5776 5774 5772 5770
5722 5724 5727 5729 5731 5734 5737 5740 5743 5746 5749 5751 5753 5755 5757 5759 5761 5763 5765 5767 5768 5769 5770 5771 5772 5773 5774 5774 5775 5775 5775 5775 5775 5774 5773 5772 5771 5770 5769 5768 5766 5765 5763 5761
5715 5717 5719 5721 5722 5725 5727 5730 5733 5736 5739 5741 5743 5745 5747 5749 5751 5753 5754 5756 5758 5758 5760 5761 5762 5762 5763 5763 5764 5764 5764 5764 5764 5763 5763 5762 5761 5760 5759 5758 5756 5755 5753 5751
5708 5710 5712 5714 5715 5717 5719 5721 5724 5727 5729 5731 5733 5735 5737 5739 5741 5743 5745 5746 5747 5748 5749 5750 5751 5752 5752 5753 5753 5753 5753 5753 5753 5753 5752 5751 5750 5749 5749 5748 5746 5745 5743 5742
5702 5704 5705 5707 5708 5710 5712 5714 5716 5718 5720 5722 5724 5725 5727 5729 5731 5733 5734 5735 5736 5737 5738 5739 5740 5741 5741 5742 5742 5742 5742 5743 5743 5742 5742 5741 5740 5739 5738 5737 5736 5735 5733 5732
5696 5697 5699 5700 5702 5703 5704 5706 5707 5709 5711 5713 5714 5716 5718 5720 5722 5723 5724 5725 5726 5727 5728 5729 5729 5730 5731 5732 5732 5732 5732 5732 5732 5732 5732 5731 5730 5729 5728 5727 5726 5725 5723 5721
5690 5692 5693 5694 5695 5696 5696 5697 5699 5701 5702 5704 5705 5707 5709 5710 5712 5713 5714 5715 5716 5717 5717 5718 5719 5720 5721 5721 5722 5722 5722 5722 5722 5722 5721 5721 5720 5719 5718 5717 5716 5715 5713 5711
5686 5686 5687 5688 5689 5689 5689 5690 5691 5693 5694 5696 5697 5699 5700 5701 5703 5704 5705 5705 5706 5706 5707 5708 5709 5710 5710 5711 5712 5712 5712 5712 5712 5712 5712 5711 5710 5709 5708 5707 5706 5705 5703 5701